This is the latest recevied weather packets stored in our database for station/object SQ9MHX-13. If no packets are shown the sender has not sent any weather packets the latest 10 day(s).
| Time | Temp. | Humidity | Pressure | Rain* | Wind** | Luminosity | Snow |
|---|---|---|---|---|---|---|---|
| 1777909050 | 26.11° C | 23% | 945.4 hPa | - | 0 m/s | - | - |
| 1777908750 | 27.22° C | 22% | 945.1 hPa | - | 0 m/s | - | - |
| 1777908451 | 26.11° C | 23% | 944.6 hPa | - | 0 m/s | - | - |
| 1777908152 | 27.78° C | 24% | 943.9 hPa | - | 0 m/s | - | - |
| 1777907852 | 27.22° C | 21% | 944.9 hPa | - | 0 m/s | - | - |
| 1777907553 | 26.11° C | 23% | 945.4 hPa | - | 0 m/s | - | - |
| 1777907254 | 26.11° C | 23% | 945 hPa | - | 0 m/s | - | - |
| 1777906954 | 27.22° C | 24% | 944.4 hPa | - | 0 m/s | - | - |
| 1777906655 | 27.78° C | 21% | 944.5 hPa | - | 0 m/s | - | - |
| 1777906356 | 27.78° C | 21% | 944.8 hPa | - | 0 m/s | - | - |
| 1777906056 | 26.11° C | 23% | 945.8 hPa | - | 0 m/s | - | - |
| 1777905458 | 26.11° C | 23% | 946.2 hPa | - | 0 m/s | - | - |
| 1777905159 | 26.11° C | 21% | 946.4 hPa | - | 0 m/s | - | - |
| 1777904560 | 26.11° C | 23% | 945.5 hPa | - | 0 m/s | - | - |
| 1777904260 | 26.11° C | 24% | 944.5 hPa | - | 0 m/s | - | - |
| 1777903662 | 27.78° C | 19% | 944.4 hPa | - | 0 m/s | - | - |
| 1777903362 | 27.22° C | 23% | 945.7 hPa | - | 0 m/s | - | - |
| 1777903063 | 26.11° C | 23% | 945.9 hPa | - | 0 m/s | - | - |
| 1777902764 | 26.11° C | 23% | 945.8 hPa | - | 0 m/s | - | - |
| 1777902165 | 26.11° C | 23% | 945.5 hPa | - | 0 m/s | - | - |
| 1777901866 | 27.78° C | 22% | 945.4 hPa | - | 0 m/s | - | - |
| 1777901566 | 26.11° C | 23% | 945.1 hPa | - | 0 m/s | - | - |
| 1777901270 | 27.78° C | 18% | 943.9 hPa | - | 0 m/s | - | - |
| 1777900967 | 27.22° C | 21% | 944 hPa | - | 0 m/s | - | - |
| 1777900369 | 27.78° C | 20% | 943.1 hPa | - | 0 m/s | - | - |
* Rain since midnight (hover to see other rain measurements)
** Current wind speed in m/s (hover to see current wind gust speed)